ABS-6

Last updated on Mon Oct 14 2024 00:02:37 GMT+0000 (Coordinated Universal Time)

1 25924U 99053A 24287.57890483 -.00000121 00000+0 00000+0 0 9998 2 25924 0.0527 93.0642 0002140 145.3234 151.6535 1.00271887 91708
UTC large
Height (km)
Speed (km/s)
/
Latitude / Longitude
Inclination (degrees)
Orbital Period (minutes)
Azimuth
Elevation
Range (km)
Doppler Factor

Next 0 passes for location: London (51.5072 / 0.1276)

Sorry there are no passes over London.